[[[{"header":{"parameterUnit":"kt","parameterCategory":2,"dx":1,"dy":1,"la1":30.253999710083008,"la2":30.299108505249023,"lo1":-89.0895004272461,"lo2":-89.04439544677734,"nx":28,"ny":28,"refTime":"2022-10-16T21:00:00:Z","depth":"0","parameterNumber":2,"parameterNumberName":"U-component_of_CURRENTS"},"data":[0.7844,0.7833,0.7864,0.777,0.7764,0.7623,0.7586,0.7494,0.7521,0.7436,0.7503,0.7657,0.7982,0.8253,0.8205,0.8119,0.7548,0.7314,0.7248,0.7954,0.8009,0.8062,0.7705,0.7523,0.7522,0.587,0.5857,0.5846,0.7907,0.794,0.7998,0.7986,0.7952,0.8013,0.8005,0.7914,0.7882,0.8014,0.8116,0.8402,0.8658,0.8956,0.9198,0.9049,0.8693,0.879,0.8073,0.7932,0.9064,0.874,0.8775,0.8776,0.8776,0.8776,0.8776,0.8777,0.7979,0.8026,0.8031,0.8079,0.8103,0.8099,0.809,0.8097,0.8173,0.8188,0.8475,0.8644,0.899,0.966,0.9828,0.9828,0.9706,0.9588,0.9415,0.9076,0.8564,0.958,1.0088,1.0092,1.0095,1.0098,1.01,0,0.793,0.7961,0.7998,0.8053,0.8087,0.8128,0.8151,0.8221,0.8242,0.8383,0.8537,0.8722,0.9275,0.9492,1.0002,1.0197,0.9651,1.0175,0.9919,0.895,0.8341,0.8053,0.91,0.9755,0.9757,0.9758,0.9759,0.976,0.772,0.7848,0.7896,0.7917,0.7908,0.8024,0.804,0.809,0.8127,0.8346,0.8412,0.8791,0.8936,0.9601,0.9823,1.0265,0.9822,1.02,0.9864,0.946,0.9201,0.8756,0.8503,0.978,0.9778,0.9776,0.9774,0,0.7563,0.754,0.7698,0.7705,0.7719,0.7843,0.7859,0.7954,0.8058,0.8212,0.8291,0.8427,0.8777,0.896,0.945,0.9479,0.9611,0.9978,0.9525,0.9476,0.9313,0.9067,0.9257,0.9018,1.0426,1.043,1.0433,0,0.721,0.7357,0.7272,0.7369,0.7551,0.7482,0.7693,0.771,0.7817,0.7921,0.7962,0.8122,0.8293,0.8578,0.8722,0.9112,0.9269,0.9225,0.924,0.8888,0.884,0.8687,0.8427,0.9404,0.9398,0.9393,0.9388,0,0.6858,0.6934,0.7099,0.7118,0.7113,0.7208,0.7221,0.729,0.7359,0.7567,0.7656,0.7916,0.8037,0.8355,0.8421,0.8264,0.8994,0.8789,0.8982,0.8974,0.8865,0.882,0.9129,0.9381,0.9379,0.9377,0.9375,0,0.6499,0.6535,0.6726,0.6778,0.6817,0.6876,0.7036,0.7076,0.7184,0.7198,0.7342,0.7328,0.7593,0.7392,0.7903,0.7639,0.785,0.7954,0.7982,0.7954,0.7689,0.8013,0.8452,0.815,0.8143,0.8132,0.8123,0,0.6196,0.6338,0.6255,0.6428,0.6528,0.6436,0.6505,0.6549,0.6554,0.6704,0.6723,0.6864,0.6678,0.6752,0.6945,0.7082,0.7396,0.6969,0.7582,0.7603,0.7531,0.7973,0.7657,0.8282,0.7984,0.7998,0.8009,0,0.598,0.5925,0.5962,0.6032,0.6012,0.606,0.6102,0.6214,0.6335,0.6284,0.6515,0.65,0.6516,0.6543,0.649,0.6697,0.7154,0.6634,0.6646,0.6948,0.7865,0.7784,0.787,0.7133,0.7149,0.7162,0.7898,0,0.5749,0.5786,0.5806,0.586,0.5864,0.5931,0.5903,0.5915,0.5884,0.5913,0.6054,0.6003,0.6119,0.606,0.5994,0.6334,0.6347,0.6245,0.621,0.6434,0.6706,0.6794,0.5725,0.5722,0.572,0.5718,0,0,0.5616,0.5674,0.5579,0.5638,0.569,0.5602,0.5711,0.5681,0.5689,0.5762,0.5649,0.5768,0.5696,0.5886,0.5913,0.5821,0.6005,0.5824,0.6245,0.6303,0.6357,0.6633,0.6719,0.5714,0.5713,0.5713,0.5712,0,0.558,0.5516,0.5562,0.5566,0.5585,0.5581,0.5591,0.5599,0.561,0.562,0.5625,0.5669,0.5586,0.5663,0.5672,0.5771,0.5857,0.5715,0.5914,0.6212,0.6272,0.6327,0.6609,0.6688,0.5706,0.5707,0.5707,0,0.5522,0.5517,0.5514,0.5516,0.5519,0.5568,0.5526,0.5539,0.5596,0.5504,0.5545,0.5519,0.5499,0.5526,0.5528,0.548,0.5766,0.5508,0.552,0.5647,0.5957,0.6023,0.6081,0.5353,0.5352,0.5351,0,0,0.5517,0.5505,0.5517,0.5518,0.5522,0.5524,0.5528,0.5534,0.5528,0.5521,0.549,0.5472,0.5484,0.5462,0.5451,0.5435,0.5604,0.5468,0.5484,0.5498,0.5629,0.5942,0.6003,0.5348,0.5348,0.5347,0,0,0.5522,0.5519,0.5518,0.5515,0.5529,0.5532,0.5534,0.5534,0.5517,0.5514,0.5466,0.5453,0.5473,0.5417,0.5381,0.5434,0.5363,0.5367,0.5464,0.5484,0.55,0.5671,0.5319,0,0,0,0,0,0.5525,0.552,0.5519,0.5521,0.5515,0.5529,0.5528,0.5532,0.5527,0.5528,0.5509,0.5456,0.5417,0.5383,0.5363,0.5412,0.5304,0.5312,0.5319,0.5442,0.5464,0.5482,0,0,0,0,0,0,0.5526,0.5526,0.552,0.5523,0.5523,0.5528,0.5523,0.5522,0.5528,0.5529,0.5465,0.5454,0.5417,0.5387,0.5371,0.542,0.5324,0.5307,0.5314,0.532,0.545,0.5467,0.5483,0,0,0,0,0,0.5527,0.5527,0.5518,0.5522,0.5522,0.5531,0.5523,0.5522,0.5517,0.5471,0.5461,0.5526,0.5417,0.5401,0.5377,0.543,0.5335,0.5329,0.5311,0.5317,0.5321,0.5458,0,0,0,0,0,0,0.5527,0.5509,0.5518,0.5519,0.5533,0.5531,0.553,0.5523,0.5457,0.5452,0.5528,0.5529,0.5417,0.5404,0.5392,0.544,0.5344,0.5338,0.5334,0.5315,0.5319,0.5323,0,0,0,0,0,0,0.551,0.5508,0.5518,0.5532,0.5533,0.5531,0.553,0.5466,0.5453,0.5514,0.5515,0.5529,0.5422,0.5406,0.5397,0.5297,0.5351,0.5345,0.5341,0.5339,0.5319,0.5322,0,0,0,0,0,0,0.5509,0.5508,0.5531,0.5532,0.5533,0.553,0.547,0.5449,0.5516,0.5513,0.5519,0.552,0.5423,0.5413,0.54,0.5305,0.5299,0.5351,0.5347,0.5344,0.5342,0,0,0,0,0,0,0,0.5509,0.5515,0.5528,0.5532,0.5533,0.5526,0.5525,0.5523,0.5517,0.5518,0.5519,0.5519,0.5384,0.5377,0.5371,0.5311,0,0,0.5351,0.5349,0,0,0,0,0,0,0,0,0.5515,0.5515,0.5528,0.5529,0.5529,0.5526,0.5525,0.5524,0.5517,0.5518,0.5518,0.5519,0.5382,0.5377,0.5372,0,0,0,0,0,0,0,0,0,0,0,0,0,0,0,0.5528,0.5529,0,0.5525,0.5525,0.5524,0.5517,0.5518,0.5518,0.5519,0.5381,0.5376,0.5372,0,0,0,0,0,0,0,0,0,0,0,0,0,0,0,0,0,0,0,0,0,0,0,0,0,0,0,0,0,0,0,0,0,0,0,0,0,0,0,0,0,0,0,0,0,0,0,0,0,0,0,0,0,0,0,0,0,0,0,0,0,0,0,0,0,0,0,0,0]}],[{"header":{"parameterUnit":"kt","parameterCategory":2,"dx":1,"dy":1,"la1":30.253999710083008,"la2":30.299108505249023,"lo1":-89.0895004272461,"lo2":-89.04439544677734,"nx":28,"ny":28,"refTime":"2022-10-16T21:00:00:Z","depth":"0","parameterNumber":3,"parameterNumberName":"V-component_of_CURRENTS"},"data":[0.0073,0.0145,0.022,0.0406,0.0537,0.0741,0.0876,0.1175,0.1583,0.2334,0.2929,0.3315,0.3101,0.0819,-0.086,-0.1313,-0.1946,-0.203,-0.2345,-0.1819,-0.1755,-0.1695,-0.1865,-0.2318,-0.2321,-0.323,-0.324,-0.3247,0.0103,0.0176,0.0302,0.0464,0.0603,0.0702,0.0933,0.109,0.1346,0.1847,0.2089,0.2486,0.1975,0.1466,0.0509,-0.03,-0.064,-0.0791,-0.1074,-0.1176,-0.0202,-0.0312,-0.0443,-0.0442,-0.0442,-0.0441,-0.0441,-0.044,0.0143,0.0212,0.0314,0.0452,0.0589,0.0757,0.0879,0.1057,0.1282,0.1613,0.1686,0.2064,0.1887,0.1636,0.1176,0.0395,0.0427,0.0117,-0.0109,-0.02,-0.0472,0.053,0.0699,0.0699,0.0699,0.0699,0.0699,0,0.0129,0.0187,0.0289,0.0432,0.0545,0.0697,0.0843,0.0962,0.1132,0.1313,0.1521,0.1647,0.163,0.1548,0.133,0.1103,0.045,0.0788,0.0291,-0.0168,-0.0416,-0.0673,0.0347,0.0668,0.0668,0.0668,0.0668,0.0668,0.002,0.0133,0.0299,0.0366,0.0421,0.0588,0.0681,0.0821,0.0935,0.1174,0.1266,0.1392,0.1475,0.1409,0.1164,0.1007,0.0588,0.0796,0.0615,0.0063,-0.0275,-0.0445,-0.0616,0.0667,0.0667,0.0667,0.0667,0,-0.0075,-0.0003,0.0173,0.0308,0.0356,0.0489,0.0621,0.0754,0.0874,0.1057,0.1114,0.1185,0.1218,0.1095,0.1049,0.0845,0.055,0.071,0.063,0.0553,-0.0024,-0.0282,-0.0282,-0.0467,0.0685,0.0685,0.0685,0,-0.024,-0.0097,-0.0022,0.0065,0.0273,0.0283,0.0502,0.0567,0.07,0.0836,0.0827,0.0941,0.0836,0.0846,0.0668,0.0585,0.0696,0.0385,0.0316,0.0269,0.0248,-0.0199,-0.0475,0.0497,0.0495,0.0494,0.0493,0,-0.0476,-0.031,-0.0125,-0.0095,-0.0007,0.0101,0.0159,0.0255,0.0339,0.0504,0.0572,0.0677,0.0691,0.0674,0.0449,0.0341,0.0508,0.0326,0.0221,0.0208,0.0178,0.015,0.0079,0.0491,0.0491,0.049,0.049,0,-0.0677,-0.0594,-0.0374,-0.0272,-0.0235,-0.0148,0.0004,0.0079,0.0181,0.0188,0.0277,0.02,0.0313,0.0089,0.0167,0.0063,-0.0018,-0.0099,-0.0097,-0.0217,-0.0475,-0.0329,-0.0009,-0.0494,-0.022,-0.0225,-0.0229,0,-0.0931,-0.0737,-0.0758,-0.0575,-0.0492,-0.0567,-0.0458,-0.0415,-0.0414,-0.0304,-0.0333,-0.0256,-0.0454,-0.0435,-0.0362,-0.0462,-0.0343,-0.0505,-0.0485,-0.0484,-0.0541,-0.0224,-0.0243,-0.0087,-0.0291,-0.0285,-0.028,0,-0.1145,-0.1093,-0.1066,-0.1007,-0.1017,-0.0984,-0.0882,-0.08,-0.0691,-0.0748,-0.0573,-0.0597,-0.0662,-0.0664,-0.0769,-0.0686,-0.0466,-0.0846,-0.0848,-0.0758,-0.024,-0.0311,-0.0277,-0.052,-0.0511,-0.0504,-0.0329,0,-0.135,-0.129,-0.1243,-0.1187,-0.1185,-0.1124,-0.1172,-0.1154,-0.1202,-0.121,-0.111,-0.1205,-0.1162,-0.1197,-0.129,-0.1062,-0.115,-0.125,-0.1326,-0.1117,-0.1088,-0.1047,-0.1603,-0.1609,-0.1613,-0.1617,0,0,-0.1567,-0.1464,-0.1557,-0.1487,-0.1464,-0.1601,-0.1495,-0.1517,-0.1563,-0.1515,-0.163,-0.1589,-0.1671,-0.1505,-0.1468,-0.1548,-0.153,-0.1534,-0.1264,-0.1225,-0.1188,-0.1144,-0.1101,-0.1625,-0.1627,-0.1628,-0.163,0,-0.1622,-0.1667,-0.1578,-0.1598,-0.1624,-0.1659,-0.165,-0.1703,-0.1713,-0.1685,-0.1767,-0.1752,-0.1807,-0.178,-0.178,-0.1624,-0.1687,-0.1669,-0.1421,-0.1309,-0.1263,-0.1223,-0.117,-0.1128,-0.1641,-0.164,-0.164,0,-0.1761,-0.1775,-0.175,-0.1766,-0.1796,-0.175,-0.1876,-0.1867,-0.181,-0.1978,-0.1924,-0.1994,-0.2049,-0.1989,-0.1977,-0.2032,-0.1814,-0.1946,-0.1924,-0.1855,-0.1743,-0.1692,-0.1647,-0.2218,-0.2219,-0.222,0,0,-0.1809,-0.1769,-0.1824,-0.1784,-0.1795,-0.1864,-0.1877,-0.1914,-0.1954,-0.1972,-0.2032,-0.2076,-0.2076,-0.2079,-0.2114,-0.2063,-0.2055,-0.2005,-0.1978,-0.1955,-0.1874,-0.1757,-0.1709,-0.2223,-0.2223,-0.2223,0,0,-0.1835,-0.1859,-0.1895,-0.185,-0.1884,-0.1947,-0.1933,-0.1984,-0.2017,-0.2019,-0.2118,-0.2135,-0.2101,-0.2171,-0.2205,-0.2113,-0.224,-0.2234,-0.2028,-0.1996,-0.197,-0.1858,-0.2307,0,0,0,0,0,-0.1907,-0.1851,-0.1883,-0.1884,-0.1916,-0.1928,-0.1937,-0.2002,-0.2043,-0.203,-0.2083,-0.2152,-0.2199,-0.2232,-0.2244,-0.214,-0.2267,-0.2259,-0.2252,-0.1979,-0.1944,-0.1914,0,0,0,0,0,0,-0.1908,-0.1906,-0.1885,-0.1939,-0.1948,-0.193,-0.2009,-0.2026,-0.2045,-0.2055,-0.2138,-0.2155,-0.2218,-0.2232,-0.2242,-0.2139,-0.2303,-0.2264,-0.2257,-0.2251,-0.1967,-0.1938,-0.1914,0,0,0,0,0,-0.1909,-0.1908,-0.1934,-0.1942,-0.195,-0.2025,-0.201,-0.2025,-0.2043,-0.2131,-0.2148,-0.209,-0.2215,-0.2229,-0.2238,-0.2131,-0.2297,-0.2301,-0.226,-0.2254,-0.225,-0.1953,0,0,0,0,0,0,-0.191,-0.1932,-0.1938,-0.1945,-0.1959,-0.2028,-0.2037,-0.2024,-0.2119,-0.2135,-0.2087,-0.2094,-0.2213,-0.2224,-0.2234,-0.2121,-0.2292,-0.2296,-0.2298,-0.2256,-0.2251,-0.2248,0,0,0,0,0,0,-0.1933,-0.1936,-0.1942,-0.1959,-0.1968,-0.2031,-0.2038,-0.2066,-0.212,-0.2071,-0.208,-0.2089,-0.2204,-0.222,-0.2229,-0.2269,-0.2288,-0.2291,-0.2294,-0.2295,-0.2252,-0.2249,0,0,0,0,0,0,-0.1936,-0.1939,-0.1958,-0.1965,-0.1973,-0.2051,-0.2059,-0.2092,-0.212,-0.2067,-0.2125,-0.2128,-0.2199,-0.2209,-0.2224,-0.2261,-0.2267,-0.2288,-0.2291,-0.2292,-0.2293,0,0,0,0,0,0,0,-0.1939,-0.1894,-0.1899,-0.1969,-0.1977,-0.2004,-0.2006,-0.2008,-0.212,-0.2123,-0.2125,-0.2127,-0.2269,-0.2273,-0.2277,-0.2254,0,0,-0.2288,-0.229,0,0,0,0,0,0,0,0,-0.1895,-0.1894,-0.1899,-0.19,-0.1901,-0.2005,-0.2006,-0.2008,-0.2121,-0.2122,-0.2124,-0.2126,-0.227,-0.2273,-0.2276,0,0,0,0,0,0,0,0,0,0,0,0,0,0,0,-0.1899,-0.19,0,-0.2005,-0.2006,-0.2008,-0.2121,-0.2122,-0.2124,-0.2125,-0.2271,-0.2274,-0.2276,0,0,0,0,0,0,0,0,0,0,0,0,0,0,0,0,0,0,0,0,0,0,0,0,0,0,0,0,0,0,0,0,0,0,0,0,0,0,0,0,0,0,0,0,0,0,0,0,0,0,0,0,0,0,0,0,0,0,0,0,0,0,0,0,0,0,0,0,0]}]],[[{"header":{"parameterUnit":"kt","parameterCategory":2,"dx":1,"dy":1,"la1":30.253999710083008,"la2":30.299108505249023,"lo1":-89.0895004272461,"lo2":-89.04439544677734,"nx":28,"ny":28,"refTime":"2022-10-16T21:00:00:Z","depth":"2","parameterNumber":2,"parameterNumberName":"U-component_of_CURRENTS"},"data":[0.3323,0.3321,0.3352,0.3332,0.3408,0.337,0.3391,0.334,0.3394,0.3261,0.328,0.347,0.3778,0.3295,0.3247,0.3099,0.3476,0.2962,0.4013,0.4346,0.444,0.4742,0.4488,0,0,0,0,0,0.3384,0.3439,0.3501,0.359,0.36,0.3755,0.3872,0.3833,0.3909,0.4085,0.4178,0.3884,0.3802,0.4018,0.3825,0.3727,0.3817,0.3616,0.3809,0.3919,0.4017,0.3778,0.294,0.2936,0.2932,0.2929,0,0,0.3512,0.3526,0.3627,0.373,0.3833,0.3917,0.3959,0.4154,0.4321,0.4512,0.4798,0.4849,0.498,0.4765,0.47,0.4699,0.5026,0.4886,0.4936,0.4997,0.4795,0.452,0.4233,0.4238,0.4242,0.4246,0.425,0,0.361,0.3673,0.3748,0.3864,0.3976,0.4103,0.4304,0.4387,0.4759,0.4959,0.523,0.5359,0.5598,0.5517,0.5532,0.5516,0.5855,0.5615,0.648,0.5618,0.5356,0.5284,0.5307,0.5272,0.5283,0.5291,0.5297,0.5302,0.3717,0.3755,0.3937,0.3996,0.4089,0.427,0.4395,0.4696,0.4841,0.5298,0.5402,0.5772,0.5917,0.6213,0.6275,0.6336,0.6619,0.5898,0.5776,0.6305,0.623,0.6216,0.62,0.5423,0.5407,0.5395,0.5384,0,0.3764,0.3881,0.3979,0.4185,0.4257,0.436,0.4632,0.4774,0.5072,0.5338,0.5454,0.5885,0.6184,0.6479,0.6852,0.6782,0.6892,0.6806,0.6291,0.6162,0.6288,0.6256,0.6413,0.6399,0.6387,0.6377,0.6369,0,0.3869,0.3942,0.4112,0.4159,0.4298,0.4482,0.4678,0.4871,0.5167,0.5367,0.5681,0.5879,0.6332,0.658,0.6724,0.6778,0.7082,0.6692,0.6629,0.6307,0.6229,0.6949,0.6913,0.7258,0.7257,0.7257,0.7257,0,0.3871,0.4051,0.4141,0.4201,0.4416,0.4521,0.4667,0.4948,0.51,0.5453,0.5596,0.5994,0.6219,0.6462,0.6674,0.6641,0.7032,0.6988,0.6629,0.659,0.6315,0.6233,0.7256,0.7256,0.7256,0.7256,0.7256,0,0.3946,0.4024,0.4153,0.4322,0.4373,0.4484,0.4724,0.4889,0.5209,0.5348,0.5639,0.5796,0.6155,0.6138,0.6561,0.6455,0.6532,0.6615,0.6618,0.6224,0.602,0.5679,0.5782,0.6496,0.6491,0.6486,0.6482,0,0.3896,0.4025,0.4109,0.4255,0.4331,0.4463,0.4624,0.481,0.4975,0.5194,0.5443,0.5678,0.5748,0.5863,0.6075,0.6254,0.6378,0.6232,0.639,0.6393,0.5939,0.6127,0.5746,0.5741,0.6424,0.643,0.6434,0,0.3842,0.3996,0.4013,0.4074,0.4235,0.4307,0.449,0.4682,0.4812,0.5016,0.5225,0.5551,0.5646,0.5767,0.5854,0.6022,0.6256,0.5991,0.5998,0.5952,0.654,0.6092,0.6087,0.6308,0.6318,0.6326,0.6388,0,0.3844,0.392,0.3968,0.4088,0.4173,0.4264,0.439,0.4506,0.4599,0.4712,0.5003,0.5174,0.5409,0.5478,0.5526,0.5834,0.5743,0.5752,0.5659,0.5865,0.5848,0.5885,0.5422,0.542,0.5419,0.5418,0,0,0.3756,0.3838,0.3892,0.3974,0.4041,0.4115,0.4204,0.4304,0.4459,0.4557,0.4552,0.494,0.5048,0.5325,0.5418,0.5443,0.5471,0.5408,0.5746,0.5782,0.5816,0.5813,0.585,0.5415,0.5414,0.5414,0.5413,0,0.3742,0.3795,0.3854,0.3927,0.4033,0.409,0.4124,0.4236,0.4307,0.4479,0.4551,0.4743,0.4927,0.5073,0.5165,0.5391,0.5372,0.542,0.5539,0.5724,0.5762,0.5796,0.58,0.5834,0.5409,0.5409,0.541,0,0.3695,0.3748,0.378,0.3889,0.3955,0.4046,0.4041,0.4137,0.423,0.4262,0.4429,0.4544,0.4685,0.4878,0.497,0.4913,0.5253,0.5139,0.5151,0.5206,0.5396,0.5439,0.5478,0.4974,0.4972,0.4971,0,0,0.3683,0.3735,0.3823,0.3891,0.3933,0.401,0.4062,0.4103,0.4201,0.4247,0.4336,0.446,0.4619,0.4687,0.4821,0.4975,0.5018,0.5082,0.5103,0.5119,0.5181,0.5375,0.5417,0.4964,0.4964,0.4963,0,0,0.3676,0.3759,0.3781,0.3857,0.3941,0.4024,0.408,0.411,0.4221,0.4235,0.4301,0.4331,0.4533,0.4567,0.4469,0.4797,0.4718,0.474,0.4751,0.4777,0.4797,0.4838,0.4441,0,0,0,0,0,0.3697,0.3746,0.3765,0.3787,0.3911,0.4013,0.4032,0.4088,0.4088,0.4138,0.4233,0.4229,0.4548,0.446,0.4489,0.4605,0.4874,0.489,0.4905,0.496,0.4987,0.501,0,0,0,0,0,0,0.3706,0.3731,0.3764,0.3843,0.3873,0.401,0.3995,0.4011,0.4085,0.409,0.4212,0.4231,0.4271,0.4446,0.4472,0.4583,0.4432,0.4881,0.4894,0.4906,0.4969,0.4992,0.5011,0,0,0,0,0,0.3713,0.3734,0.3916,0.3844,0.3869,0.3956,0.3993,0.4008,0.4071,0.4159,0.418,0.4115,0.427,0.4298,0.4462,0.4572,0.4414,0.4424,0.4889,0.49,0.4909,0.498,0,0,0,0,0,0,0.3719,0.3747,0.3922,0.3933,0.3832,0.3952,0.397,0.4004,0.4139,0.4159,0.4062,0.4064,0.4269,0.4292,0.4313,0.4568,0.44,0.441,0.4416,0.4897,0.4906,0.4913,0,0,0,0,0,0,0.3737,0.3755,0.3928,0.391,0.3919,0.3947,0.3964,0.4067,0.4141,0.4035,0.404,0.4062,0.4254,0.4287,0.4304,0.4461,0.4389,0.4398,0.4405,0.4409,0.4904,0.4911,0,0,0,0,0,0,0.3746,0.3762,0.3907,0.3914,0.3922,0.4044,0.4041,0.4175,0.4096,0.4029,0.4094,0.4093,0.425,0.4267,0.4297,0.4447,0.4457,0.4389,0.4395,0.44,0.4403,0,0,0,0,0,0,0,0.3753,0.363,0.3862,0.3917,0.3924,0.4032,0.4034,0.4037,0.4096,0.4095,0.4094,0.4094,0.4335,0.4346,0.4356,0.4435,0,0,0.4388,0.4393,0,0,0,0,0,0,0,0,0.3625,0.3629,0.3862,0.3864,0.3867,0.4032,0.4034,0.4037,0.4096,0.4095,0.4095,0.4094,0.4338,0.4346,0.4355,0,0,0,0,0,0,0,0,0,0,0,0,0,0,0,0.3862,0.3864,0,0.4033,0.4034,0.4036,0.4096,0.4095,0.4095,0.4094,0.434,0.4347,0.4354,0,0,0,0,0,0,0,0,0,0,0,0,0,0,0,0,0,0,0,0,0,0,0,0,0,0,0,0,0,0,0,0,0,0,0,0,0,0,0,0,0,0,0,0,0,0,0,0,0,0,0,0,0,0,0,0,0,0,0,0,0,0,0,0,0,0,0,0,0]}],[{"header":{"parameterUnit":"kt","parameterCategory":2,"dx":1,"dy":1,"la1":30.253999710083008,"la2":30.299108505249023,"lo1":-89.0895004272461,"lo2":-89.04439544677734,"nx":28,"ny":28,"refTime":"2022-10-16T21:00:00:Z","depth":"2","parameterNumber":3,"parameterNumberName":"V-component_of_CURRENTS"},"data":[0.0953,0.1198,0.1333,0.1834,0.2071,0.2536,0.2835,0.3238,0.336,0.329,0.3011,0.2423,0.1522,0.0824,0.001,-0.0479,-0.0464,-0.056,-0.0564,-0.0146,-0.0112,-0.0632,-0.0487,0,0,0,0,0,0.0866,0.1009,0.1243,0.1575,0.1883,0.1981,0.2465,0.2762,0.3226,0.3204,0.3191,0.2365,0.1482,0.0708,-0.0263,-0.0933,-0.0854,-0.1076,-0.0821,-0.0796,-0.0773,-0.0696,-0.1024,-0.1025,-0.1025,-0.1026,0,0,0.0724,0.0848,0.1038,0.1293,0.1535,0.1893,0.2168,0.2484,0.2868,0.3156,0.304,0.281,0.2064,0.0697,0.0041,-0.0564,-0.0612,-0.0855,-0.0833,-0.0811,-0.075,-0.0815,-0.1084,-0.1085,-0.1086,-0.1086,-0.1086,0,0.0639,0.0699,0.0836,0.1094,0.1297,0.1564,0.1844,0.2069,0.2356,0.2598,0.2852,0.2747,0.2064,0.1371,0.0375,-0.0088,-0.0237,-0.0481,-0.029,-0.0265,-0.0323,-0.041,-0.0394,-0.0502,-0.0499,-0.0497,-0.0495,-0.0494,0.0537,0.0616,0.0819,0.0944,0.1018,0.1233,0.1424,0.1608,0.1846,0.2165,0.2356,0.226,0.2141,0.1439,0.0823,0.0067,0.0048,-0.0379,-0.0448,-0.0359,-0.0455,-0.044,-0.0428,-0.0465,-0.0469,-0.0472,-0.0474,0,0.0491,0.0544,0.0699,0.0849,0.0914,0.1054,0.1314,0.1507,0.1641,0.1959,0.2034,0.2091,0.1871,0.1491,0.1081,0.0694,0.0262,0.0018,0.0056,-0.0046,-0.0389,-0.0386,-0.0528,-0.0537,-0.0544,-0.055,-0.0555,0,0.0432,0.0523,0.0629,0.0688,0.0878,0.0917,0.1145,0.1218,0.1406,0.1649,0.1599,0.1767,0.1511,0.1366,0.0971,0.0525,0.0674,0.0078,-0.0034,0.0041,0.0023,0.0174,0.0164,0.0293,0.0296,0.0298,0.03,0,0.0353,0.0466,0.0583,0.061,0.0729,0.0802,0.0881,0.0995,0.1126,0.1264,0.1398,0.1381,0.1437,0.1179,0.0859,0.0819,0.0604,0.0502,0.004,0.0016,-0.0015,-0.0044,0.0303,0.0304,0.0304,0.0305,0.0306,0,0.0284,0.0349,0.047,0.0599,0.0624,0.0681,0.082,0.0884,0.099,0.1024,0.1101,0.1081,0.1109,0.0946,0.0767,0.0814,0.0547,0.0391,0.0376,0.0147,-0.0034,-0.0216,-0.0169,0.0068,0.0068,0.0068,0.0069,0,0.022,0.0317,0.0313,0.0422,0.0475,0.045,0.0525,0.0563,0.0591,0.0689,0.0666,0.0753,0.0602,0.0649,0.0616,0.0496,0.0402,0.0463,0.0163,0.0152,-0.0012,0.0058,0.0118,-0.0155,0.0074,0.0073,0.0073,0,0.0147,0.019,0.0193,0.0241,0.0227,0.025,0.0299,0.0348,0.0433,0.0389,0.0514,0.0493,0.0478,0.0475,0.0412,0.0398,0.0383,0.0272,0.0267,0.0147,0.0267,0.0078,0.0055,0.0379,0.0382,0.0385,0.0077,0,0.0106,0.0127,0.0144,0.0147,0.0151,0.017,0.0138,0.0146,0.0119,0.0115,0.0186,0.0129,0.0164,0.014,0.0083,0.0181,0.0062,0.0037,-0.0028,0.0085,-0.0083,-0.0085,-0.0116,-0.012,-0.0123,-0.0125,0,0,0.0031,0.005,-0.0011,0.0009,0.0013,-0.0071,-0.0029,-0.0051,-0.0101,-0.0071,-0.0135,-0.0108,-0.0161,-0.0061,-0.0034,-0.0085,-0.0161,-0.0075,0.0016,0.0032,0.0047,-0.0102,-0.0101,-0.0131,-0.0132,-0.0133,-0.0134,0,0.0002,-0.0037,-0.0016,-0.0037,-0.0079,-0.0108,-0.0106,-0.0166,-0.0182,-0.017,-0.0227,-0.021,-0.0243,-0.0233,-0.0235,-0.0134,-0.0247,-0.0157,-0.0003,-0.0011,0.0009,0.0027,-0.0115,-0.0111,-0.0142,-0.0141,-0.0141,0,-0.0063,-0.0095,-0.0101,-0.0141,-0.0178,-0.0166,-0.0254,-0.0267,-0.025,-0.0352,-0.0335,-0.0369,-0.0407,-0.0366,-0.0358,-0.0397,-0.0338,-0.0344,-0.0329,-0.0293,-0.0306,-0.0282,-0.0261,-0.0528,-0.0529,-0.0529,0,0,-0.0088,-0.0092,-0.0157,-0.0155,-0.0169,-0.0241,-0.0261,-0.0298,-0.0336,-0.0351,-0.0393,-0.0426,-0.0425,-0.0427,-0.0449,-0.0419,-0.0488,-0.0383,-0.0365,-0.0349,-0.0305,-0.0313,-0.0291,-0.0531,-0.0531,-0.0531,0,0,-0.0104,-0.0167,-0.0203,-0.0202,-0.0241,-0.0312,-0.0311,-0.0357,-0.0383,-0.0387,-0.0454,-0.0464,-0.0437,-0.0488,-0.0508,-0.0452,-0.0537,-0.0534,-0.039,-0.0368,-0.0351,-0.0287,-0.0575,0,0,0,0,0,-0.0179,-0.0158,-0.019,-0.02,-0.0271,-0.0297,-0.0308,-0.0367,-0.0403,-0.0393,-0.0432,-0.0477,-0.0505,-0.0524,-0.0533,-0.0464,-0.0557,-0.0553,-0.0548,-0.0358,-0.0335,-0.0315,0,0,0,0,0,0,-0.0184,-0.0195,-0.0191,-0.0259,-0.0277,-0.0299,-0.0361,-0.0376,-0.0404,-0.0411,-0.0469,-0.0479,-0.052,-0.0524,-0.0531,-0.0463,-0.0573,-0.0556,-0.0552,-0.0548,-0.035,-0.0331,-0.0315,0,0,0,0,0,-0.0188,-0.0197,-0.0289,-0.0261,-0.0276,-0.0352,-0.0361,-0.0375,-0.0396,-0.046,-0.0471,-0.0438,-0.0519,-0.0527,-0.0528,-0.0458,-0.0569,-0.0571,-0.0553,-0.055,-0.0547,-0.0341,0,0,0,0,0,0,-0.0191,-0.0212,-0.0294,-0.0302,-0.0266,-0.0351,-0.0364,-0.0373,-0.0443,-0.0456,-0.043,-0.0435,-0.0517,-0.0524,-0.0531,-0.0451,-0.0565,-0.0568,-0.0569,-0.0551,-0.0548,-0.0546,0,0,0,0,0,0,-0.0208,-0.0217,-0.0298,-0.0301,-0.031,-0.035,-0.0362,-0.0382,-0.0442,-0.0409,-0.0416,-0.0431,-0.0502,-0.0522,-0.0527,-0.0559,-0.0562,-0.0565,-0.0566,-0.0567,-0.0549,-0.0547,0,0,0,0,0,0,-0.0213,-0.0221,-0.03,-0.0306,-0.0314,-0.0404,-0.037,-0.0434,-0.046,-0.0404,-0.0462,-0.0464,-0.0498,-0.0505,-0.0525,-0.0553,-0.0557,-0.0562,-0.0564,-0.0565,-0.0566,0,0,0,0,0,0,0,-0.0218,-0.0143,-0.025,-0.031,-0.0317,-0.0373,-0.0375,-0.0377,-0.046,-0.0461,-0.0462,-0.0463,-0.0549,-0.0552,-0.0554,-0.0549,0,0,-0.0562,-0.0563,0,0,0,0,0,0,0,0,-0.0141,-0.0142,-0.025,-0.0252,-0.0253,-0.0374,-0.0375,-0.0377,-0.046,-0.0461,-0.0462,-0.0463,-0.055,-0.0552,-0.0554,0,0,0,0,0,0,0,0,0,0,0,0,0,0,0,-0.025,-0.0252,0,-0.0374,-0.0375,-0.0377,-0.046,-0.0461,-0.0462,-0.0462,-0.0551,-0.0552,-0.0554,0,0,0,0,0,0,0,0,0,0,0,0,0,0,0,0,0,0,0,0,0,0,0,0,0,0,0,0,0,0,0,0,0,0,0,0,0,0,0,0,0,0,0,0,0,0,0,0,0,0,0,0,0,0,0,0,0,0,0,0,0,0,0,0,0,0,0,0,0]}]],[[{"header":{"parameterUnit":"kt","parameterCategory":2,"dx":1,"dy":1,"la1":30.253999710083008,"la2":30.299108505249023,"lo1":-89.0895004272461,"lo2":-89.04439544677734,"nx":28,"ny":28,"refTime":"2022-10-16T21:00:00:Z","depth":"4","parameterNumber":2,"parameterNumberName":"U-component_of_CURRENTS"},"data":[0.0664,0.0745,0.0805,0.0877,0.0942,0.1111,0.1267,0.1476,0.152,0.1818,0.1817,0.2054,0.2044,0.2226,0.2088,0.2095,0.2055,0.2215,0.221,0.2228,0.2242,0.2254,0.2232,0,0,0,0,0,0.0713,0.0754,0.0846,0.0995,0.1139,0.1243,0.1503,0.1673,0.1978,0.202,0.2181,0.2198,0.2212,0.2288,0.2141,0.2303,0.2228,0.2125,0.213,0.2237,0.2252,0.2225,0,0,0,0,0,0,0.0778,0.082,0.0928,0.1062,0.1229,0.1363,0.1558,0.1759,0.194,0.2322,0.2323,0.2513,0.2649,0.255,0.2447,0.2349,0.2285,0.2206,0.2222,0.2236,0.2207,0.2187,0.2037,0,0,0,0,0,0.0845,0.089,0.1012,0.1156,0.1335,0.1518,0.1815,0.1891,0.2235,0.247,0.2612,0.2687,0.2692,0.2627,0.255,0.2413,0.2502,0.2418,0.2424,0.2374,0.2371,0.233,0.2337,0.2309,0.2311,0.2312,0.2313,0,0.0927,0.0933,0.1171,0.1249,0.1395,0.1647,0.1822,0.2167,0.2302,0.2652,0.2696,0.287,0.2956,0.275,0.2721,0.2557,0.2505,0.2459,0.2407,0.2396,0.235,0.2354,0.2356,0.2325,0.2324,0.2323,0.2322,0,0.0965,0.1064,0.1181,0.1442,0.1536,0.1686,0.2054,0.2206,0.247,0.2656,0.2755,0.2967,0.2975,0.2964,0.2862,0.274,0.2609,0.2536,0.2699,0.2655,0.2379,0.2377,0.2345,0.2341,0.2337,0.2334,0.2331,0,0.1075,0.1167,0.1344,0.1417,0.1585,0.178,0.2009,0.2185,0.2425,0.2573,0.2797,0.2902,0.2934,0.2934,0.2839,0.2695,0.2765,0.2545,0.2495,0.2621,0.2618,0.2549,0.2537,0.2654,0.2654,0.2654,0.2654,0,0.109,0.1279,0.1364,0.1425,0.1648,0.176,0.195,0.2166,0.2298,0.2552,0.2677,0.2801,0.289,0.285,0.2791,0.279,0.2737,0.2684,0.2516,0.2506,0.2546,0.2533,0.2655,0.2655,0.2655,0.2655,0.2655,0,0.1166,0.1278,0.1386,0.1584,0.1641,0.1755,0.1968,0.2106,0.2306,0.2418,0.2577,0.2684,0.2767,0.2739,0.2726,0.2752,0.2695,0.2644,0.264,0.2463,0.2372,0.2396,0.2561,0.2561,0.256,0.256,0.256,0,0.116,0.1297,0.1387,0.1515,0.1589,0.1695,0.1832,0.1956,0.2103,0.2259,0.2348,0.2525,0.2516,0.2618,0.2623,0.258,0.2592,0.2586,0.2492,0.2488,0.2339,0.2456,0.2582,0.2554,0.2555,0.2555,0.2556,0,0.1133,0.1282,0.1308,0.1369,0.1528,0.1582,0.1719,0.1848,0.1961,0.2102,0.2247,0.2386,0.2436,0.2479,0.2507,0.2515,0.2573,0.2497,0.2492,0.2453,0.2586,0.2464,0.2455,0.2576,0.2577,0.2578,0.2552,0,0.1185,0.1249,0.1291,0.1398,0.1466,0.1537,0.1638,0.172,0.1825,0.1888,0.208,0.2143,0.2253,0.2287,0.2305,0.2401,0.2393,0.2342,0.2246,0.2374,0.2347,0.2351,0.2258,0.2255,0.2252,0.225,0,0,0.1147,0.1204,0.1244,0.1322,0.1375,0.1418,0.1489,0.155,0.165,0.1714,0.1783,0.196,0.1983,0.2113,0.2204,0.2198,0.2205,0.2213,0.2329,0.2338,0.2347,0.2327,0.2334,0.2246,0.2245,0.2244,0.2243,0,0.1152,0.1203,0.1233,0.1282,0.1349,0.1369,0.1413,0.1462,0.1545,0.167,0.1708,0.1811,0.1935,0.1975,0.2012,0.216,0.2099,0.2215,0.232,0.2307,0.232,0.2331,0.2315,0.2323,0.2236,0.2237,0.2237,0,0.1147,0.1185,0.1176,0.1242,0.1255,0.1313,0.1308,0.1369,0.1443,0.1446,0.1605,0.1657,0.1709,0.1839,0.1905,0.1864,0.1993,0.1971,0.1986,0.1971,0.1949,0.1966,0.1981,0.1774,0.1773,0.1772,0,0,0.1165,0.1186,0.1212,0.1237,0.1271,0.1269,0.1288,0.1331,0.1398,0.145,0.1513,0.1592,0.1671,0.1739,0.1784,0.1859,0.1805,0.1917,0.1939,0.1957,0.1952,0.1936,0.1953,0.1767,0.1767,0.1767,0,0,0.1161,0.1181,0.1179,0.1231,0.1253,0.1239,0.1283,0.1301,0.14,0.1447,0.1479,0.1507,0.1663,0.165,0.1588,0.177,0.1679,0.169,0.1786,0.1812,0.1834,0.1822,0.1538,0,0,0,0,0,0.1116,0.1161,0.1156,0.1163,0.1175,0.1202,0.1202,0.1271,0.1302,0.1362,0.1461,0.1433,0.1661,0.1606,0.1604,0.1682,0.1702,0.1714,0.1724,0.1864,0.1892,0.1916,0,0,0,0,0,0,0.1118,0.1126,0.1155,0.1137,0.114,0.1199,0.1221,0.1236,0.1305,0.1328,0.1409,0.1429,0.1446,0.1602,0.1601,0.1678,0.1538,0.1707,0.1716,0.1725,0.1873,0.1897,0.1917,0,0,0,0,0,0.112,0.1126,0.1157,0.1135,0.1138,0.1209,0.1228,0.1242,0.1318,0.1339,0.1365,0.1393,0.1438,0.1451,0.1601,0.168,0.1539,0.1538,0.1713,0.1721,0.1728,0.1885,0,0,0,0,0,0,0.1122,0.1106,0.1156,0.1156,0.1209,0.1213,0.1226,0.1247,0.133,0.1351,0.1317,0.1332,0.1431,0.1442,0.145,0.1686,0.1539,0.1539,0.1539,0.1719,0.1725,0.173,0,0,0,0,0,0,0.1104,0.1106,0.1155,0.1246,0.1256,0.1217,0.1229,0.1204,0.1334,0.1303,0.1318,0.1323,0.1469,0.1435,0.1443,0.1394,0.1539,0.1539,0.1539,0.1539,0.1724,0.1728,0,0,0,0,0,0,0.1104,0.1106,0.1246,0.1254,0.1263,0.1259,0.1198,0.1238,0.1328,0.13,0.1349,0.1358,0.1462,0.1469,0.1436,0.1382,0.1391,0.1539,0.1539,0.1539,0.1539,0,0,0,0,0,0,0,0.1104,0.1099,0.1167,0.126,0.1269,0.1154,0.1153,0.1152,0.133,0.1338,0.1346,0.1354,0.1539,0.1539,0.1539,0.1374,0,0,0.1539,0.1539,0,0,0,0,0,0,0,0,0.1097,0.1098,0.1167,0.1167,0.1168,0.1154,0.1153,0.1152,0.1331,0.1338,0.1345,0.1351,0.1539,0.1539,0.1539,0,0,0,0,0,0,0,0,0,0,0,0,0,0,0,0.1167,0.1167,0,0.1153,0.1153,0.1152,0.1332,0.1338,0.1343,0.1349,0.1539,0.1539,0.1539,0,0,0,0,0,0,0,0,0,0,0,0,0,0,0,0,0,0,0,0,0,0,0,0,0,0,0,0,0,0,0,0,0,0,0,0,0,0,0,0,0,0,0,0,0,0,0,0,0,0,0,0,0,0,0,0,0,0,0,0,0,0,0,0,0,0,0,0,0]}],[{"header":{"parameterUnit":"kt","parameterCategory":2,"dx":1,"dy":1,"la1":30.253999710083008,"la2":30.299108505249023,"lo1":-89.0895004272461,"lo2":-89.04439544677734,"nx":28,"ny":28,"refTime":"2022-10-16T21:00:00:Z","depth":"4","parameterNumber":3,"parameterNumberName":"V-component_of_CURRENTS"},"data":[0.0799,0.0879,0.0926,0.1023,0.1084,0.1184,0.1207,0.1173,0.108,0.0982,0.0723,0.0614,0.0136,0.0292,-0.0326,-0.0416,-0.0557,-0.1029,-0.1032,-0.1287,-0.1296,-0.1304,-0.1123,0,0,0,0,0,0.0802,0.085,0.093,0.1023,0.1115,0.1168,0.1198,0.12,0.1138,0.1015,0.0916,0.06,0.0145,-0.0092,-0.0343,-0.0507,-0.0934,-0.0801,-0.1007,-0.1293,-0.1303,-0.1123,0,0,0,0,0,0,0.0802,0.0841,0.0915,0.0994,0.1089,0.1142,0.1178,0.1136,0.11,0.0897,0.0819,0.0448,0.0199,-0.0219,-0.0529,-0.0801,-0.0873,-0.0921,-0.095,-0.0963,-0.0765,-0.0539,-0.0597,0,0,0,0,0,0.0789,0.0822,0.0867,0.097,0.1045,0.1101,0.1147,0.1129,0.1036,0.0964,0.0735,0.0462,0.0104,-0.0328,-0.0638,-0.0958,-0.1234,-0.1291,-0.1299,-0.1275,-0.1147,-0.1161,-0.1143,-0.1339,-0.134,-0.1341,-0.1342,0,0.0775,0.0797,0.0877,0.0918,0.0948,0.0999,0.1039,0.0995,0.0955,0.0758,0.069,0.0381,0.0156,-0.0362,-0.0732,-0.1167,-0.1205,-0.1315,-0.1287,-0.116,-0.1176,-0.1155,-0.1134,-0.1349,-0.1349,-0.1348,-0.1348,0,0.0767,0.0784,0.0825,0.0853,0.0875,0.09,0.0922,0.0901,0.0798,0.0691,0.064,0.0329,0.0001,-0.0346,-0.0806,-0.0936,-0.1231,-0.129,-0.1205,-0.1233,-0.1162,-0.1138,-0.1362,-0.1359,-0.1357,-0.1355,-0.1353,0,0.0751,0.0771,0.0799,0.0819,0.0849,0.081,0.0807,0.0739,0.0622,0.0552,0.0352,0.0222,-0.0173,-0.0432,-0.0679,-0.0953,-0.1067,-0.1116,-0.1155,-0.1141,-0.1118,-0.1189,-0.1169,-0.1344,-0.1342,-0.1341,-0.1339,0,0.0736,0.0743,0.0766,0.0762,0.0742,0.0734,0.0726,0.0602,0.0551,0.0365,0.0304,0.0017,-0.0117,-0.0393,-0.066,-0.0652,-0.1052,-0.1079,-0.11,-0.109,-0.1172,-0.1155,-0.1338,-0.1337,-0.1337,-0.1336,-0.1336,0,0.0704,0.0728,0.0738,0.0738,0.0735,0.0718,0.0642,0.0581,0.041,0.0333,0.0167,0.0038,-0.0189,-0.022,-0.0595,-0.0506,-0.0668,-0.0815,-0.0827,-0.0732,-0.0717,-0.0787,-0.0934,-0.093,-0.0926,-0.0923,-0.0919,0,0.0704,0.0721,0.0708,0.0699,0.0707,0.0646,0.0594,0.0499,0.041,0.03,0.0122,-0.0003,-0.007,-0.0139,-0.0295,-0.0503,-0.0627,-0.0487,-0.0801,-0.0808,-0.0642,-0.0753,-0.0653,-0.0869,-0.0876,-0.088,-0.0883,0,0.0699,0.0712,0.0713,0.0717,0.0671,0.0648,0.0577,0.0492,0.0444,0.0317,0.0218,0.0009,-0.0051,-0.0147,-0.0254,-0.039,-0.0551,-0.0437,-0.0446,-0.0479,-0.0852,-0.0708,-0.0724,-0.0626,-0.0632,-0.0636,-0.0849,0,0.0686,0.0699,0.0707,0.0689,0.066,0.0644,0.0576,0.0523,0.0479,0.0404,0.0241,0.0096,-0.0054,-0.0119,-0.0182,-0.0358,-0.037,-0.0406,-0.0388,-0.047,-0.055,-0.0577,-0.0266,-0.0267,-0.0268,-0.0268,0,0,0.068,0.07,0.0693,0.0683,0.067,0.0624,0.0606,0.0543,0.0443,0.0393,0.039,0.0123,0.0032,-0.015,-0.0186,-0.0239,-0.0316,-0.0221,-0.0423,-0.044,-0.0456,-0.0535,-0.0561,-0.0269,-0.0269,-0.0269,-0.0269,0,0.0677,0.0696,0.0707,0.0678,0.0645,0.0608,0.0608,0.0545,0.0504,0.0405,0.0325,0.021,0.0057,-0.0053,-0.0131,-0.0233,-0.0292,-0.0272,-0.027,-0.0422,-0.0438,-0.0453,-0.0533,-0.0556,-0.0271,-0.0271,-0.0271,0,0.0664,0.0667,0.0675,0.0654,0.0626,0.0596,0.0576,0.0545,0.0499,0.042,0.0342,0.0244,0.0108,-0.0014,-0.0071,-0.0061,-0.0269,-0.0192,-0.0193,-0.0194,-0.0352,-0.037,-0.0386,-0.0175,-0.0174,-0.0173,0,0,0.0656,0.0675,0.0641,0.0649,0.0643,0.0587,0.0564,0.0532,0.0465,0.0434,0.0363,0.0261,0.0142,0.009,-0.0015,-0.012,-0.0187,-0.0174,-0.0178,-0.0181,-0.0184,-0.0342,-0.0359,-0.0169,-0.0169,-0.0169,0,0,0.0643,0.0642,0.0633,0.0651,0.0606,0.0543,0.0536,0.0506,0.0426,0.0425,0.0343,0.0317,0.0204,0.0144,0.0201,-0.0006,0.0004,-0.001,0.0058,0.0051,0.0046,0.0074,0.0178,0,0,0,0,0,0.0625,0.0646,0.0639,0.0639,0.0598,0.0548,0.0534,0.05,0.0504,0.0483,0.0403,0.0384,0.0143,0.0193,0.0166,0.0122,-0.0123,-0.0131,-0.0139,-0.0079,-0.0085,-0.0091,0,0,0,0,0,0,0.0625,0.0626,0.0638,0.0586,0.0577,0.0547,0.0538,0.0526,0.0505,0.0503,0.0397,0.038,0.0318,0.0203,0.0179,0.0139,0.0186,-0.0126,-0.0133,-0.0139,-0.0081,-0.0087,-0.0091,0,0,0,0,0,0.0624,0.0625,0.0587,0.0583,0.0574,0.0529,0.0539,0.0529,0.0503,0.0413,0.0397,0.0486,0.0319,0.0295,0.0188,0.0151,0.0202,0.0193,-0.0131,-0.0136,-0.0141,-0.0084,0,0,0,0,0,0,0.0624,0.0583,0.0582,0.0576,0.0603,0.0529,0.0522,0.0532,0.0412,0.0398,0.0498,0.0497,0.0319,0.03,0.0282,0.0158,0.0215,0.0206,0.0201,-0.0135,-0.0139,-0.0143,0,0,0,0,0,0,0.0583,0.0578,0.0578,0.0606,0.0601,0.0528,0.0523,0.043,0.0409,0.05,0.0498,0.0499,0.0344,0.0303,0.0289,0.0144,0.0225,0.0216,0.0211,0.0207,-0.0138,-0.0142,0,0,0,0,0,0,0.0579,0.0574,0.0606,0.0603,0.0599,0.0513,0.0441,0.0394,0.0461,0.0503,0.0465,0.0467,0.0347,0.0332,0.0294,0.0156,0.0147,0.0224,0.0219,0.0215,0.0212,0,0,0,0,0,0,0,0.0575,0.063,0.0634,0.0601,0.0597,0.0517,0.0514,0.0511,0.0461,0.0463,0.0464,0.0466,0.0272,0.0263,0.0254,0.0165,0,0,0.0225,0.0221,0,0,0,0,0,0,0,0,0.0629,0.063,0.0634,0.0634,0.0633,0.0517,0.0514,0.0512,0.0462,0.0463,0.0464,0.0465,0.027,0.0262,0.0255,0,0,0,0,0,0,0,0,0,0,0,0,0,0,0,0.0634,0.0634,0,0.0516,0.0514,0.0512,0.0462,0.0463,0.0464,0.0465,0.0268,0.0262,0.0255,0,0,0,0,0,0,0,0,0,0,0,0,0,0,0,0,0,0,0,0,0,0,0,0,0,0,0,0,0,0,0,0,0,0,0,0,0,0,0,0,0,0,0,0,0,0,0,0,0,0,0,0,0,0,0,0,0,0,0,0,0,0,0,0,0,0,0,0,0]}]]]